Location: Fort Worth, Tx
(32.7431°N, 97.3695°W)
Time: 21:02:33
(UTC-04:00)

Vanguard 1 Rocket - Pass Details

Date: 20 September 2024
Orbit: 650 x 4218 km, 34.3° (Epoch: 11 October)

Event Time Altitude Azimuth Distance (km) Brightness Sun altitude
Exits shadow 07:24:05 12° 274° (W) 4,796 10.4 -11.9°
Maximum altitude 07:39:37 86° 5° (N) 3,507 10.3 -8.6°
Drops below altitude 10° 08:06:04 10° 97° (E) 7,412 13.9 -3.1°
Sets 08:11:47 0° 98° (E) 8,351 14.7 -1.9°
